Time,TemperatureF,DewpointF,PressureIn,WindDirection,WindDirectionDegrees,WindSpeedMPH,WindSpeedGustMPH,Humidity,HourlyPrecipIn,Conditions,Clouds,dailyrainin,SolarRadiationWatts/m^2,SoftwareType,DateUTC
2013-02-14 00:00:00,39.1,35.8,30.24,NW,309,0.0,2.0,88,0.00,,,0.00,0,Wunderground v.1.15,2013-02-14 08:00:00,
2013-02-14 00:06:00,38.9,35.6,30.25,NW,309,0.0,2.0,88,0.00,,,0.00,0,Wunderground v.1.15,2013-02-14 08:06:00,
2013-02-14 00:12:00,38.8,35.6,30.24,NW,309,0.0,2.0,88,0.00,,,0.00,0,Wunderground v.1.15,2013-02-14 08:12:00,
2013-02-14 00:18:00,38.6,35.4,30.24,NW,309,0.0,2.0,88,0.00,,,0.00,0,Wunderground v.1.15,2013-02-14 08:18:00,
2013-02-14 00:24:00,38.5,35.5,30.24,NW,309,0.0,2.0,89,0.00,,,0.00,0,Wunderground v.1.15,2013-02-14 08:24:00,
2013-02-14 00:30:00,38.4,35.4,30.25,NW,309,0.0,2.0,89,0.00,,,0.00,0,Wunderground v.1.15,2013-02-14 08:30:00,
2013-02-14 00:36:00,38.3,35.3,30.24,NW,309,0.0,2.0,89,0.00,,,0.00,0,Wunderground v.1.15,2013-02-14 08:36:00,
2013-02-14 00:42:00,38.1,35.1,30.25,NW,309,0.0,2.0,89,0.00,,,0.00,0,Wunderground v.1.15,2013-02-14 08:42:00,
2013-02-14 00:48:00,37.9,34.9,30.24,NW,309,0.0,2.0,89,0.00,,,0.00,0,Wunderground v.1.15,2013-02-14 08:48:00,
2013-02-14 00:54:00,37.8,34.8,30.25,NW,309,0.0,2.0,89,0.00,,,0.00,0,Wunderground v.1.15,2013-02-14 08:54:00,
2013-02-14 01:00:00,37.7,34.8,30.24,NW,309,0.0,2.0,89,0.00,,,0.00,0,Wunderground v.1.15,2013-02-14 09:00:00,
2013-02-14 01:06:00,37.5,34.6,30.24,NW,309,0.0,2.0,89,0.00,,,0.00,0,Wunderground v.1.15,2013-02-14 09:06:00,
2013-02-14 01:11:00,37.5,34.6,30.24,NW,309,0.0,2.0,89,0.00,,,0.00,0,Wunderground v.1.15,2013-02-14 09:11:00,
2013-02-14 01:17:00,37.4,34.5,30.24,NW,309,0.0,2.0,89,0.00,,,0.00,0,Wunderground v.1.15,2013-02-14 09:17:00,
2013-02-14 01:24:00,37.3,34.4,30.24,NW,309,0.0,2.0,89,0.00,,,0.00,0,Wunderground v.1.15,2013-02-14 09:24:00,
2013-02-14 01:30:00,37.2,34.5,30.24,NW,309,0.0,2.0,90,0.00,,,0.00,0,Wunderground v.1.15,2013-02-14 09:30:00,
2013-02-14 01:36:00,37.1,34.4,30.24,NW,309,0.0,2.0,90,0.00,,,0.00,0,Wunderground v.1.15,2013-02-14 09:36:00,
2013-02-14 01:41:00,37.1,34.4,30.24,NW,309,0.0,2.0,90,0.00,,,0.00,0,Wunderground v.1.15,2013-02-14 09:41:00,
2013-02-14 01:48:00,36.9,34.2,30.24,NW,309,0.0,2.0,90,0.00,,,0.00,0,Wunderground v.1.15,2013-02-14 09:48:00,
2013-02-14 01:54:00,36.8,34.1,30.24,NW,309,0.0,2.0,90,0.00,,,0.00,0,Wunderground v.1.15,2013-02-14 09:54:00,
2013-02-14 02:00:00,36.7,34.0,30.24,SSW,211,0.0,3.0,90,0.00,,,0.00,0,Wunderground v.1.15,2013-02-14 10:00:00,
2013-02-14 02:05:00,36.6,33.9,30.24,South,175,1.0,3.0,90,0.00,,,0.00,0,Wunderground v.1.15,2013-02-14 10:05:00,
2013-02-14 02:12:00,36.6,34.2,30.24,West,275,0.0,3.0,91,0.00,,,0.00,0,Wunderground v.1.15,2013-02-14 10:12:00,
2013-02-14 02:18:00,36.9,34.5,30.23,South,183,2.0,4.0,91,0.00,,,0.00,0,Wunderground v.1.15,2013-02-14 10:18:00,
2013-02-14 02:24:00,37.1,34.7,30.24,ENE,60,2.0,3.0,91,0.00,,,0.00,0,Wunderground v.1.15,2013-02-14 10:24:00,
2013-02-14 02:30:00,37.3,34.9,30.23,NNE,27,1.0,1.0,91,0.00,,,0.00,0,Wunderground v.1.15,2013-02-14 10:30:00,
2013-02-14 02:36:00,37.1,34.7,30.23,East,82,0.0,3.0,91,0.00,,,0.00,0,Wunderground v.1.15,2013-02-14 10:36:00,
2013-02-14 02:42:00,37.1,34.7,30.23,East,80,0.0,3.0,91,0.00,,,0.00,0,Wunderground v.1.15,2013-02-14 10:42:00,
2013-02-14 02:48:00,37.0,34.6,30.24,ENE,60,1.0,4.0,91,0.00,,,0.00,0,Wunderground v.1.15,2013-02-14 10:48:00,
2013-02-14 02:54:00,37.2,35.1,30.24,North,11,2.0,3.0,92,0.00,,,0.00,0,Wunderground v.1.15,2013-02-14 10:54:00,
2013-02-14 03:00:00,37.3,35.2,30.23,West,266,2.0,5.0,92,0.00,,,0.00,0,Wunderground v.1.15,2013-02-14 11:00:00,
2013-02-14 03:06:00,37.3,35.2,30.23,West,269,1.0,5.0,92,0.00,,,0.00,0,Wunderground v.1.15,2013-02-14 11:06:00,
2013-02-14 03:12:00,37.3,35.2,30.23,West,269,1.0,5.0,92,0.00,,,0.00,0,Wunderground v.1.15,2013-02-14 11:12:00,
2013-02-14 03:18:00,37.3,35.2,30.23,West,271,0.0,5.0,92,0.00,,,0.00,0,Wunderground v.1.15,2013-02-14 11:18:00,
2013-02-14 03:24:00,37.4,35.6,30.24,West,271,0.0,5.0,93,0.00,,,0.00,0,Wunderground v.1.15,2013-02-14 11:24:00,
2013-02-14 03:30:00,37.8,36.0,30.23,West,271,0.0,5.0,93,0.00,,,0.00,0,Wunderground v.1.15,2013-02-14 11:30:00,
2013-02-14 03:36:00,37.9,36.1,30.24,West,277,0.0,5.0,93,0.00,,,0.00,0,Wunderground v.1.15,2013-02-14 11:36:00,
2013-02-14 03:42:00,37.8,35.7,30.23,West,277,0.0,5.0,92,0.00,,,0.00,0,Wunderground v.1.15,2013-02-14 11:42:00,
2013-02-14 03:48:00,37.7,35.6,30.24,NW,319,1.0,5.0,92,0.00,,,0.00,0,Wunderground v.1.15,2013-02-14 11:48:00,
2013-02-14 03:54:00,37.7,35.9,30.23,SW,234,2.0,5.0,93,0.00,,,0.00,0,Wunderground v.1.15,2013-02-14 11:54:00,
2013-02-14 04:00:00,37.9,36.1,30.23,SW,234,1.0,1.0,93,0.00,,,0.00,0,Wunderground v.1.15,2013-02-14 12:00:00,
2013-02-14 04:06:00,37.9,36.1,30.23,SW,234,0.0,4.0,93,0.00,,,0.00,0,Wunderground v.1.15,2013-02-14 12:06:00,
2013-02-14 04:12:00,38.0,36.2,30.23,SW,234,0.0,4.0,93,0.00,,,0.00,0,Wunderground v.1.15,2013-02-14 12:12:00,
2013-02-14 04:20:00,38.1,36.3,30.23,SW,234,0.0,4.0,93,0.00,,,0.00,0,Wunderground v.1.15,2013-02-14 12:20:00,
2013-02-14 04:26:00,38.1,36.3,30.23,SW,234,0.0,4.0,93,0.00,,,0.00,0,Wunderground v.1.15,2013-02-14 12:26:00,
2013-02-14 04:32:00,38.1,36.3,30.23,SW,234,0.0,4.0,93,0.00,,,0.00,0,Wunderground v.1.15,2013-02-14 12:32:00,
2013-02-14 04:38:00,38.1,36.3,30.23,NNW,327,1.0,4.0,93,0.00,,,0.00,0,Wunderground v.1.15,2013-02-14 12:38:00,
2013-02-14 04:44:00,38.2,36.4,30.23,NNW,333,1.0,4.0,93,0.00,,,0.00,0,Wunderground v.1.15,2013-02-14 12:44:00,
2013-02-14 04:50:00,38.2,36.4,30.23,NE,36,1.0,4.0,93,0.00,,,0.00,0,Wunderground v.1.15,2013-02-14 12:50:00,
2013-02-14 04:56:00,38.2,36.4,30.23,WNW,301,1.0,4.0,93,0.00,,,0.00,0,Wunderground v.1.15,2013-02-14 12:56:00,
2013-02-14 05:02:00,38.2,36.4,30.23,WNW,290,1.0,4.0,93,0.00,,,0.00,0,Wunderground v.1.15,2013-02-14 13:02:00,
2013-02-14 05:08:00,38.1,36.3,30.23,North,355,1.0,4.0,93,0.00,,,0.00,0,Wunderground v.1.15,2013-02-14 13:08:00,
2013-02-14 05:14:00,38.0,36.2,30.23,North,350,1.0,4.0,93,0.00,,,0.00,0,Wunderground v.1.15,2013-02-14 13:14:00,
2013-02-14 05:19:00,37.8,36.0,30.23,North,350,0.0,4.0,93,0.00,,,0.00,0,Wunderground v.1.15,2013-02-14 13:19:00,
2013-02-14 05:25:00,37.7,35.9,30.23,North,350,0.0,4.0,93,0.00,,,0.00,0,Wunderground v.1.15,2013-02-14 13:25:00,
2013-02-14 05:32:00,37.5,35.7,30.24,North,355,0.0,4.0,93,0.00,,,0.00,0,Wunderground v.1.15,2013-02-14 13:32:00,
2013-02-14 05:38:00,37.5,35.7,30.24,North,355,1.0,4.0,93,0.00,,,0.00,0,Wunderground v.1.15,2013-02-14 13:38:00,
2013-02-14 05:44:00,37.3,35.5,30.23,North,355,0.0,4.0,93,0.00,,,0.00,0,Wunderground v.1.15,2013-02-14 13:44:00,
2013-02-14 05:50:00,37.1,35.3,30.24,North,355,0.0,4.0,93,0.00,,,0.00,0,Wunderground v.1.15,2013-02-14 13:50:00,
2013-02-14 05:56:00,37.0,35.2,30.24,North,355,0.0,4.0,93,0.00,,,0.00,0,Wunderground v.1.15,2013-02-14 13:56:00,
2013-02-14 06:02:00,36.8,35.0,30.24,North,355,0.0,3.0,93,0.00,,,0.00,0,Wunderground v.1.15,2013-02-14 14:02:00,
2013-02-14 06:08:00,36.6,34.8,30.24,North,355,0.0,3.0,93,0.00,,,0.00,0,Wunderground v.1.15,2013-02-14 14:08:00,
2013-02-14 06:14:00,36.5,34.7,30.24,North,355,0.0,3.0,93,0.00,,,0.00,0,Wunderground v.1.15,2013-02-14 14:14:00,
2013-02-14 06:20:00,36.4,34.6,30.24,North,355,0.0,3.0,93,0.00,,,0.00,0,Wunderground v.1.15,2013-02-14 14:20:00,
2013-02-14 06:26:00,36.3,34.5,30.24,NNW,348,0.0,3.0,93,0.00,,,0.00,0,Wunderground v.1.15,2013-02-14 14:26:00,
2013-02-14 06:32:00,36.1,34.3,30.24,North,355,1.0,3.0,93,0.00,,,0.00,0,Wunderground v.1.15,2013-02-14 14:32:00,
2013-02-14 06:38:00,36.0,34.2,30.24,North,355,1.0,3.0,93,0.00,,,0.00,0,Wunderground v.1.15,2013-02-14 14:38:00,
2013-02-14 06:44:00,35.9,34.1,30.24,North,355,0.0,3.0,93,0.00,,,0.00,0,Wunderground v.1.15,2013-02-14 14:44:00,
2013-02-14 06:50:00,35.8,34.0,30.24,NW,315,1.0,3.0,93,0.00,,,0.00,0,Wunderground v.1.15,2013-02-14 14:50:00,
2013-02-14 06:55:00,35.7,33.9,30.24,NW,315,0.0,3.0,93,0.00,,,0.00,0,Wunderground v.1.15,2013-02-14 14:55:00,
2013-02-14 07:02:00,35.7,34.1,30.24,NW,315,1.0,6.0,94,0.00,,,0.00,5,Wunderground v.1.15,2013-02-14 15:02:00,
2013-02-14 07:08:00,35.7,34.1,30.24,NW,315,1.0,6.0,94,0.00,,,0.00,7,Wunderground v.1.15,2013-02-14 15:08:00,
2013-02-14 07:14:00,35.7,34.1,30.25,NNW,342,1.0,6.0,94,0.00,,,0.00,9,Wunderground v.1.15,2013-02-14 15:14:00,
2013-02-14 07:20:00,35.6,34.0,30.24,NNW,330,1.0,1.0,94,0.00,,,0.00,12,Wunderground v.1.15,2013-02-14 15:20:00,
2013-02-14 07:26:00,35.6,34.0,30.25,ENE,57,1.0,6.0,94,0.00,,,0.00,16,Wunderground v.1.15,2013-02-14 15:26:00,
2013-02-14 07:32:00,35.7,34.1,30.25,NE,52,0.0,6.0,94,0.00,,,0.00,25,Wunderground v.1.15,2013-02-14 15:32:00,
2013-02-14 07:37:00,35.9,34.3,30.25,NE,52,0.0,6.0,94,0.00,,,0.00,39,Wunderground v.1.15,2013-02-14 15:37:00,
2013-02-14 07:44:00,36.3,34.7,30.25,NE,52,0.0,6.0,94,0.00,,,0.00,51,Wunderground v.1.15,2013-02-14 15:44:00,
2013-02-14 07:50:00,36.8,35.2,30.25,NE,48,0.0,6.0,94,0.00,,,0.00,69,Wunderground v.1.15,2013-02-14 15:50:00,
2013-02-14 07:56:00,37.3,36.0,30.26,NE,48,0.0,6.0,95,0.00,,,0.00,81,Wunderground v.1.15,2013-02-14 15:56:00,
2013-02-14 08:02:00,38.0,36.7,30.26,NE,48,0.0,4.0,95,0.00,,,0.00,104,Wunderground v.1.15,2013-02-14 16:02:00,
2013-02-14 08:08:00,38.9,37.6,30.26,NE,48,0.0,4.0,95,0.00,,,0.00,123,Wunderground v.1.15,2013-02-14 16:08:00,
2013-02-14 08:14:00,39.5,38.2,30.26,NE,48,0.0,4.0,95,0.00,,,0.00,142,Wunderground v.1.15,2013-02-14 16:14:00,
2013-02-14 08:20:00,40.2,38.9,30.26,NE,48,0.0,4.0,95,0.00,,,0.01,162,Wunderground v.1.15,2013-02-14 16:20:00,
2013-02-14 08:26:00,41.4,40.1,30.27,NE,48,0.0,4.0,95,0.00,,,0.01,183,Wunderground v.1.15,2013-02-14 16:26:00,
2013-02-14 08:32:00,42.4,41.1,30.27,ENE,67,0.0,4.0,95,0.00,,,0.01,202,Wunderground v.1.15,2013-02-14 16:32:00,
2013-02-14 08:38:00,43.1,41.8,30.27,ENE,69,1.0,4.0,95,0.00,,,0.01,220,Wunderground v.1.15,2013-02-14 16:38:00,
2013-02-14 08:44:00,43.8,42.5,30.26,ENE,69,1.0,4.0,95,0.00,,,0.01,239,Wunderground v.1.15,2013-02-14 16:44:00,
2013-02-14 08:49:00,44.6,43.3,30.26,ENE,69,0.0,4.0,95,0.00,,,0.01,255,Wunderground v.1.15,2013-02-14 16:49:00,
2013-02-14 08:56:00,45.6,44.3,30.26,ENE,69,0.0,4.0,95,0.00,,,0.01,271,Wunderground v.1.15,2013-02-14 16:56:00,
2013-02-14 09:02:00,46.7,45.3,30.26,North,5,0.0,4.0,95,0.00,,,0.01,287,Wunderground v.1.15,2013-02-14 17:02:00,
2013-02-14 09:08:00,47.5,45.9,30.26,North,5,1.0,4.0,94,0.00,,,0.01,302,Wunderground v.1.15,2013-02-14 17:08:00,
2013-02-14 09:14:00,48.4,46.5,30.26,North,5,1.0,4.0,93,0.00,,,0.01,318,Wunderground v.1.15,2013-02-14 17:14:00,
2013-02-14 09:19:00,49.7,47.2,30.26,North,5,0.0,4.0,91,0.00,,,0.01,332,Wunderground v.1.15,2013-02-14 17:19:00,
2013-02-14 09:26:00,50.9,47.2,30.26,North,5,0.0,4.0,87,0.00,,,0.01,350,Wunderground v.1.15,2013-02-14 17:26:00,
2013-02-14 09:32:00,52.0,47.0,30.25,SW,229,0.0,4.0,83,0.00,,,0.01,366,Wunderground v.1.15,2013-02-14 17:32:00,
2013-02-14 09:38:00,53.3,47.0,30.25,SW,227,1.0,4.0,79,0.00,,,0.01,388,Wunderground v.1.15,2013-02-14 17:38:00,
2013-02-14 09:44:00,54.5,46.7,30.25,SSW,192,1.0,4.0,75,0.00,,,0.01,408,Wunderground v.1.15,2013-02-14 17:44:00,
2013-02-14 09:50:00,55.4,47.2,30.26,South,183,1.0,4.0,74,0.00,,,0.01,427,Wunderground v.1.15,2013-02-14 17:50:00,
2013-02-14 09:56:00,56.0,47.1,30.26,ESE,117,1.0,4.0,72,0.00,,,0.01,445,Wunderground v.1.15,2013-02-14 17:56:00,
2013-02-14 10:02:00,56.6,47.3,30.26,ESE,115,1.0,3.0,71,0.00,,,0.01,461,Wunderground v.1.15,2013-02-14 18:02:00,
2013-02-14 10:08:00,57.1,47.0,30.25,SSE,163,1.0,3.0,69,0.00,,,0.01,473,Wunderground v.1.15,2013-02-14 18:08:00,
2013-02-14 10:14:00,57.8,47.3,30.25,SE,125,1.0,3.0,68,0.00,,,0.01,490,Wunderground v.1.15,2013-02-14 18:14:00,
2013-02-14 10:20:00,58.5,47.2,30.25,SE,125,1.0,1.0,66,0.00,,,0.01,501,Wunderground v.1.15,2013-02-14 18:20:00,
2013-02-14 10:26:00,59.3,47.5,30.25,SE,125,1.0,3.0,65,0.00,,,0.01,517,Wunderground v.1.15,2013-02-14 18:26:00,
2013-02-14 10:32:00,59.8,47.6,30.25,SE,130,1.0,3.0,64,0.00,,,0.01,526,Wunderground v.1.15,2013-02-14 18:32:00,
2013-02-14 10:38:00,60.5,47.8,30.24,SE,130,0.0,3.0,63,0.00,,,0.01,540,Wunderground v.1.15,2013-02-14 18:38:00,
2013-02-14 10:44:00,61.1,48.0,30.24,South,181,0.0,3.0,62,0.00,,,0.01,548,Wunderground v.1.15,2013-02-14 18:44:00,
2013-02-14 10:50:00,61.6,48.4,30.24,ESE,109,1.0,4.0,62,0.00,,,0.01,557,Wunderground v.1.15,2013-02-14 18:50:00,
2013-02-14 10:56:00,62.3,48.7,30.24,ESE,103,2.0,4.0,61,0.00,,,0.01,570,Wunderground v.1.15,2013-02-14 18:56:00,
2013-02-14 11:02:00,62.7,48.2,30.23,ESE,105,1.0,3.0,59,0.00,,,0.01,578,Wunderground v.1.15,2013-02-14 19:02:00,
2013-02-14 11:08:00,63.3,48.7,30.23,SE,133,2.0,4.0,59,0.00,,,0.01,589,Wunderground v.1.15,2013-02-14 19:08:00,
2013-02-14 11:14:00,63.1,48.5,30.23,SE,137,4.0,8.0,59,0.00,,,0.01,596,Wunderground v.1.15,2013-02-14 19:14:00,
2013-02-14 11:20:00,62.9,48.3,30.23,SE,135,4.0,4.0,59,0.00,,,0.01,599,Wunderground v.1.15,2013-02-14 19:20:00,
2013-02-14 11:26:00,63.2,48.2,30.23,ESE,120,3.0,4.0,58,0.00,,,0.01,610,Wunderground v.1.15,2013-02-14 19:26:00,
2013-02-14 11:32:00,63.9,48.8,30.23,ESE,109,2.0,3.0,58,0.00,,,0.01,615,Wunderground v.1.15,2013-02-14 19:32:00,
2013-02-14 11:38:00,64.4,48.4,30.23,SE,137,4.0,11.0,56,0.00,,,0.01,619,Wunderground v.1.15,2013-02-14 19:38:00,
2013-02-14 11:43:00,65.0,48.9,30.23,SE,140,3.0,4.0,56,0.00,,,0.01,624,Wunderground v.1.15,2013-02-14 19:43:00,
2013-02-14 11:50:00,66.1,48.5,30.22,ESE,122,2.0,4.0,53,0.00,,,0.01,628,Wunderground v.1.15,2013-02-14 19:50:00,
2013-02-14 11:56:00,66.5,48.8,30.22,SE,142,3.0,7.0,53,0.00,,,0.01,629,Wunderground v.1.15,2013-02-14 19:56:00,
2013-02-14 12:02:00,66.7,49.0,30.22,SE,138,4.0,5.0,53,0.00,,,0.01,629,Wunderground v.1.15,2013-02-14 20:02:00,
2013-02-14 12:08:00,66.6,49.4,30.21,SE,136,5.0,11.0,54,0.00,,,0.01,629,Wunderground v.1.15,2013-02-14 20:08:00,
2013-02-14 12:14:00,66.7,49.0,30.21,SSE,154,4.0,11.0,53,0.00,,,0.01,631,Wunderground v.1.15,2013-02-14 20:14:00,
2013-02-14 12:20:00,66.7,49.0,30.21,SE,126,4.0,4.0,53,0.00,,,0.01,633,Wunderground v.1.15,2013-02-14 20:20:00,
2013-02-14 12:26:00,66.7,48.5,30.20,ESE,113,5.0,11.0,52,0.00,,,0.01,638,Wunderground v.1.15,2013-02-14 20:26:00,
2013-02-14 12:32:00,66.7,49.0,30.20,SSE,148,5.0,11.0,53,0.00,,,0.01,636,Wunderground v.1.15,2013-02-14 20:32:00,
2013-02-14 12:37:00,66.9,49.7,30.20,ESE,110,5.0,11.0,54,0.00,,,0.01,635,Wunderground v.1.15,2013-02-14 20:37:00,
2013-02-14 12:43:00,67.1,48.9,30.20,SE,124,5.0,11.0,52,0.00,,,0.01,635,Wunderground v.1.15,2013-02-14 20:43:00,
2013-02-14 12:50:00,67.0,48.3,30.20,SE,131,6.0,11.0,51,0.00,,,0.01,631,Wunderground v.1.15,2013-02-14 20:50:00,
2013-02-14 12:55:00,66.9,48.7,30.20,ESE,120,7.0,11.0,52,0.00,,,0.01,628,Wunderground v.1.15,2013-02-14 20:55:00,
2013-02-14 13:02:00,66.9,48.7,30.20,ESE,116,6.0,11.0,52,0.00,,,0.01,624,Wunderground v.1.15,2013-02-14 21:02:00,
2013-02-14 13:08:00,67.3,49.6,30.19,ESE,119,4.0,11.0,53,0.00,,,0.01,621,Wunderground v.1.15,2013-02-14 21:08:00,
2013-02-14 13:14:00,67.8,49.5,30.19,SE,128,4.0,11.0,52,0.00,,,0.01,615,Wunderground v.1.15,2013-02-14 21:14:00,
2013-02-14 13:20:00,68.0,49.7,30.20,SE,126,4.0,11.0,52,0.00,,,0.01,612,Wunderground v.1.15,2013-02-14 21:20:00,
2013-02-14 13:26:00,68.0,49.2,30.19,SE,129,5.0,11.0,51,0.00,,,0.01,605,Wunderground v.1.15,2013-02-14 21:26:00,
2013-02-14 13:31:00,68.0,49.2,30.19,ESE,121,6.0,11.0,51,0.00,,,0.01,598,Wunderground v.1.15,2013-02-14 21:31:00,
2013-02-14 13:38:00,68.3,48.9,30.19,SE,129,6.0,11.0,50,0.00,,,0.01,592,Wunderground v.1.15,2013-02-14 21:38:00,
2013-02-14 13:44:00,68.5,49.1,30.19,SE,138,6.0,11.0,50,0.00,,,0.01,585,Wunderground v.1.15,2013-02-14 21:44:00,
2013-02-14 13:50:00,68.6,49.2,30.19,ESE,111,6.0,11.0,50,0.00,,,0.01,578,Wunderground v.1.15,2013-02-14 21:50:00,
2013-02-14 13:56:00,68.6,48.7,30.19,SE,127,6.0,11.0,49,0.00,,,0.01,568,Wunderground v.1.15,2013-02-14 21:56:00,
2013-02-14 14:02:00,68.7,48.8,30.19,SE,130,5.0,13.0,49,0.00,,,0.01,559,Wunderground v.1.15,2013-02-14 22:02:00,
2013-02-14 14:08:00,68.7,48.2,30.18,SE,125,5.0,13.0,48,0.00,,,0.01,550,Wunderground v.1.15,2013-02-14 22:08:00,
2013-02-14 14:14:00,68.9,47.8,30.18,ESE,120,5.0,13.0,47,0.00,,,0.01,540,Wunderground v.1.15,2013-02-14 22:14:00,
2013-02-14 14:20:00,69.1,47.4,30.18,SE,142,3.0,3.0,46,0.00,,,0.01,531,Wunderground v.1.15,2013-02-14 22:20:00,
2013-02-14 14:26:00,69.7,48.0,30.18,SSE,150,2.0,13.0,46,0.00,,,0.01,519,Wunderground v.1.15,2013-02-14 22:26:00,
2013-02-14 14:32:00,69.8,48.7,30.18,SE,142,3.0,13.0,47,0.00,,,0.01,506,Wunderground v.1.15,2013-02-14 22:32:00,
2013-02-14 14:38:00,70.3,48.5,30.18,ESE,118,2.0,13.0,46,0.00,,,0.01,494,Wunderground v.1.15,2013-02-14 22:38:00,
2013-02-14 14:44:00,70.6,48.2,30.18,ESE,115,3.0,13.0,45,0.00,,,0.01,483,Wunderground v.1.15,2013-02-14 22:44:00,
2013-02-14 14:50:00,70.9,48.5,30.18,South,173,2.0,2.0,45,0.00,,,0.01,468,Wunderground v.1.15,2013-02-14 22:50:00,
2013-02-14 14:56:00,71.1,48.1,30.18,SSW,212,2.0,13.0,44,0.00,,,0.01,455,Wunderground v.1.15,2013-02-14 22:56:00,
2013-02-14 15:02:00,71.0,48.0,30.17,ESE,121,2.0,9.0,44,0.00,,,0.01,441,Wunderground v.1.15,2013-02-14 23:02:00,
2013-02-14 15:08:00,70.9,47.9,30.17,SE,125,3.0,9.0,44,0.00,,,0.01,427,Wunderground v.1.15,2013-02-14 23:08:00,
2013-02-14 15:13:00,70.9,48.5,30.17,ESE,123,2.0,9.0,45,0.00,,,0.01,413,Wunderground v.1.15,2013-02-14 23:13:00,
2013-02-14 15:20:00,71.1,47.5,30.17,SE,132,3.0,3.0,43,0.00,,,0.01,396,Wunderground v.1.15,2013-02-14 23:20:00,
2013-02-14 15:26:00,71.0,47.4,30.17,SE,124,3.0,9.0,43,0.00,,,0.01,380,Wunderground v.1.15,2013-02-14 23:26:00,
2013-02-14 15:32:00,70.8,46.6,30.17,ESE,121,4.0,9.0,42,0.00,,,0.01,362,Wunderground v.1.15,2013-02-14 23:32:00,
2013-02-14 15:38:00,70.7,46.5,30.17,SE,146,4.0,9.0,42,0.00,,,0.01,346,Wunderground v.1.15,2013-02-14 23:38:00,
2013-02-14 15:44:00,70.4,46.2,30.17,SE,140,4.0,9.0,42,0.00,,,0.01,329,Wunderground v.1.15,2013-02-14 23:44:00,
2013-02-14 15:50:00,70.3,46.7,30.17,ESE,118,4.0,9.0,43,0.00,,,0.01,313,Wunderground v.1.15,2013-02-14 23:50:00,
2013-02-14 15:55:00,70.1,45.9,30.18,SE,136,5.0,9.0,42,0.00,,,0.01,292,Wunderground v.1.15,2013-02-14 23:55:00,
2013-02-14 16:02:00,69.9,46.4,30.18,SE,126,5.0,9.0,43,0.00,,,0.01,271,Wunderground v.1.15,2013-02-15 00:02:00,
2013-02-14 16:07:00,69.7,46.2,30.18,SE,128,4.0,9.0,43,0.00,,,0.01,251,Wunderground v.1.15,2013-02-15 00:07:00,
2013-02-14 16:16:00,69.4,45.9,30.18,SE,141,4.0,9.0,43,0.00,,,0.01,223,Wunderground v.1.15,2013-02-15 00:16:00,
2013-02-14 16:22:00,69.2,45.7,30.18,SE,141,2.0,9.0,43,0.00,,,0.01,199,Wunderground v.1.15,2013-02-15 00:22:00,
2013-02-14 16:28:00,69.0,45.6,30.18,SE,130,2.0,9.0,43,0.00,,,0.01,179,Wunderground v.1.15,2013-02-15 00:28:00,
2013-02-14 16:34:00,68.9,45.5,30.18,SE,139,3.0,9.0,43,0.00,,,0.01,158,Wunderground v.1.15,2013-02-15 00:34:00,
2013-02-14 16:40:00,68.7,45.3,30.18,SE,139,2.0,2.0,43,0.00,,,0.01,135,Wunderground v.1.15,2013-02-15 00:40:00,
2013-02-14 16:45:00,68.5,45.1,30.18,SE,130,2.0,9.0,43,0.00,,,0.01,113,Wunderground v.1.15,2013-02-15 00:45:00,
2013-02-14 16:51:00,68.3,45.5,30.18,SE,129,2.0,9.0,44,0.00,,,0.01,93,Wunderground v.1.15,2013-02-15 00:51:00,
2013-02-14 16:58:00,68.1,45.4,30.18,SE,129,1.0,9.0,44,0.00,,,0.01,72,Wunderground v.1.15,2013-02-15 00:58:00,
2013-02-14 17:03:00,67.9,45.2,30.18,SE,129,0.0,10.0,44,0.00,,,0.01,49,Wunderground v.1.15,2013-02-15 01:03:00,
2013-02-14 17:09:00,67.9,45.2,30.18,SE,129,0.0,10.0,44,0.00,,,0.01,25,Wunderground v.1.15,2013-02-15 01:09:00,
2013-02-14 17:15:00,67.7,45.0,30.18,SE,129,0.0,10.0,44,0.00,,,0.01,23,Wunderground v.1.15,2013-02-15 01:15:00,
2013-02-14 17:22:00,67.5,46.6,30.18,SE,129,0.0,10.0,47,0.00,,,0.01,19,Wunderground v.1.15,2013-02-15 01:22:00,
2013-02-14 17:28:00,67.3,48.5,30.18,SE,129,0.0,10.0,51,0.00,,,0.01,16,Wunderground v.1.15,2013-02-15 01:28:00,
2013-02-14 17:34:00,66.7,49.0,30.19,SE,129,0.0,10.0,53,0.00,,,0.01,12,Wunderground v.1.15,2013-02-15 01:34:00,
2013-02-14 17:40:00,66.0,49.4,30.19,SE,129,0.0,10.0,55,0.00,,,0.01,9,Wunderground v.1.15,2013-02-15 01:40:00,
2013-02-14 17:45:00,64.9,48.8,30.19,SE,129,1.0,10.0,56,0.00,,,0.01,7,Wunderground v.1.15,2013-02-15 01:45:00,
2013-02-14 17:52:00,64.0,48.0,30.19,SE,126,1.0,10.0,56,0.00,,,0.01,0,Wunderground v.1.15,2013-02-15 01:52:00,
2013-02-14 17:58:00,63.2,47.7,30.19,SE,126,0.0,10.0,57,0.00,,,0.01,0,Wunderground v.1.15,2013-02-15 01:58:00,
2013-02-14 18:04:00,62.7,47.2,30.19,SE,126,0.0,3.0,57,0.00,,,0.01,0,Wunderground v.1.15,2013-02-15 02:04:00,
2013-02-14 18:10:00,62.2,47.2,30.19,SE,126,0.0,3.0,58,0.00,,,0.01,0,Wunderground v.1.15,2013-02-15 02:10:00,
2013-02-14 18:16:00,61.6,47.1,30.19,SE,126,0.0,3.0,59,0.00,,,0.01,0,Wunderground v.1.15,2013-02-15 02:16:00,
2013-02-14 18:22:00,61.1,47.1,30.19,SE,126,0.0,3.0,60,0.00,,,0.01,0,Wunderground v.1.15,2013-02-15 02:22:00,
2013-02-14 18:27:00,60.3,46.8,30.19,SE,126,0.0,3.0,61,0.00,,,0.01,0,Wunderground v.1.15,2013-02-15 02:27:00,
2013-02-14 18:33:00,59.6,46.6,30.20,SE,126,0.0,3.0,62,0.00,,,0.01,0,Wunderground v.1.15,2013-02-15 02:33:00,
2013-02-14 18:40:00,58.9,46.3,30.20,SE,126,0.0,3.0,63,0.00,,,0.01,0,Wunderground v.1.15,2013-02-15 02:40:00,
2013-02-14 18:45:00,58.2,46.1,30.20,SE,126,0.0,3.0,64,0.00,,,0.01,0,Wunderground v.1.15,2013-02-15 02:45:00,
2013-02-14 18:52:00,57.5,45.4,30.20,SE,126,0.0,3.0,64,0.00,,,0.01,0,Wunderground v.1.15,2013-02-15 02:52:00,
2013-02-14 18:58:00,57.1,45.4,30.20,SE,126,0.0,3.0,65,0.00,,,0.01,0,Wunderground v.1.15,2013-02-15 02:58:00,
2013-02-14 19:04:00,56.6,45.4,30.20,SE,126,0.0,2.0,66,0.00,,,0.01,0,Wunderground v.1.15,2013-02-15 03:04:00,
2013-02-14 19:10:00,56.0,45.6,30.20,SE,126,0.0,2.0,68,0.00,,,0.01,0,Wunderground v.1.15,2013-02-15 03:10:00,
2013-02-14 19:16:00,55.3,45.3,30.21,SE,126,0.0,2.0,69,0.00,,,0.01,0,Wunderground v.1.15,2013-02-15 03:16:00,
2013-02-14 19:22:00,54.8,45.2,30.20,SE,126,0.0,2.0,70,0.00,,,0.01,0,Wunderground v.1.15,2013-02-15 03:22:00,
2013-02-14 19:27:00,54.5,45.3,30.20,SE,126,0.0,2.0,71,0.00,,,0.01,0,Wunderground v.1.15,2013-02-15 03:27:00,
2013-02-14 19:33:00,54.1,45.3,30.20,SE,126,0.0,2.0,72,0.00,,,0.01,0,Wunderground v.1.15,2013-02-15 03:33:00,
2013-02-14 19:40:00,53.5,44.7,30.20,SE,126,0.0,2.0,72,0.00,,,0.01,0,Wunderground v.1.15,2013-02-15 03:40:00,
2013-02-14 19:46:00,53.0,44.6,30.20,SE,126,0.0,2.0,73,0.00,,,0.01,0,Wunderground v.1.15,2013-02-15 03:46:00,
2013-02-14 19:52:00,52.5,44.1,30.20,SE,126,0.0,2.0,73,0.00,,,0.01,0,Wunderground v.1.15,2013-02-15 03:52:00,
2013-02-14 19:58:00,52.1,44.1,30.20,SE,126,0.0,2.0,74,0.00,,,0.01,0,Wunderground v.1.15,2013-02-15 03:58:00,
2013-02-14 20:04:00,51.6,43.6,30.20,SE,126,0.0,1.0,74,0.00,,,0.01,0,Wunderground v.1.15,2013-02-15 04:04:00,
2013-02-14 20:10:00,51.1,43.1,30.20,SE,126,0.0,1.0,74,0.00,,,0.01,0,Wunderground v.1.15,2013-02-15 04:10:00,
2013-02-14 20:16:00,50.5,43.2,30.20,SE,126,0.0,1.0,76,0.00,,,0.01,0,Wunderground v.1.15,2013-02-15 04:16:00,
2013-02-14 20:21:00,50.1,42.8,30.21,SE,126,0.0,1.0,76,0.00,,,0.01,0,Wunderground v.1.15,2013-02-15 04:21:00,
2013-02-14 20:28:00,49.5,42.6,30.21,SE,126,0.0,2.0,77,0.00,,,0.01,0,Wunderground v.1.15,2013-02-15 04:28:00,
2013-02-14 20:34:00,49.0,42.4,30.20,SE,126,0.0,3.0,78,0.00,,,0.01,0,Wunderground v.1.15,2013-02-15 04:34:00,
2013-02-14 20:40:00,48.7,42.5,30.21,SE,126,0.0,1.0,79,0.00,,,0.01,0,Wunderground v.1.15,2013-02-15 04:40:00,
2013-02-14 20:46:00,48.3,42.1,30.21,SE,126,0.0,1.0,79,0.00,,,0.01,0,Wunderground v.1.15,2013-02-15 04:46:00,
2013-02-14 20:52:00,47.9,42.0,30.21,SE,126,0.0,1.0,80,0.00,,,0.01,0,Wunderground v.1.15,2013-02-15 04:52:00,
2013-02-14 20:58:00,47.4,41.5,30.21,SE,126,0.0,1.0,80,0.00,,,0.01,0,Wunderground v.1.15,2013-02-15 04:58:00,
2013-02-14 21:00:00,47.3,41.4,30.21,SE,126,0.0,3.0,80,0.00,,,0.01,0,Wunderground v.1.15,2013-02-15 05:00:00,
2013-02-14 21:03:00,47.1,41.2,30.21,SE,126,0.0,3.0,80,0.00,,,0.01,0,Wunderground v.1.15,2013-02-15 05:03:00,
2013-02-14 21:08:00,46.9,41.4,30.21,SE,126,0.0,3.0,81,0.00,,,0.01,0,Wunderground v.1.15,2013-02-15 05:08:00,
2013-02-14 21:14:00,46.6,41.1,30.21,ESE,111,0.0,3.0,81,0.00,,,0.01,0,Wunderground v.1.15,2013-02-15 05:14:00,
2013-02-14 21:20:00,46.3,40.8,30.21,ESE,105,1.0,1.0,81,0.00,,,0.01,0,Wunderground v.1.15,2013-02-15 05:20:00,
2013-02-14 21:26:00,46.0,40.5,30.22,ESE,105,0.0,3.0,81,0.00,,,0.01,0,Wunderground v.1.15,2013-02-15 05:26:00,
2013-02-14 21:32:00,45.7,40.5,30.21,West,271,1.0,2.0,82,0.00,,,0.01,0,Wunderground v.1.15,2013-02-15 05:32:00,
2013-02-14 21:38:00,45.6,40.4,30.21,West,268,1.0,3.0,82,0.00,,,0.01,0,Wunderground v.1.15,2013-02-15 05:38:00,
2013-02-14 21:43:00,45.6,40.7,30.22,West,268,1.0,3.0,83,0.00,,,0.01,0,Wunderground v.1.15,2013-02-15 05:43:00,
2013-02-14 21:50:00,45.6,40.7,30.21,WSW,256,0.0,3.0,83,0.00,,,0.01,0,Wunderground v.1.15,2013-02-15 05:50:00,
2013-02-14 21:55:00,45.5,40.6,30.22,North,350,1.0,3.0,83,0.00,,,0.01,0,Wunderground v.1.15,2013-02-15 05:55:00,
2013-02-14 21:58:00,45.5,40.6,30.21,North,350,1.0,3.0,83,0.00,,,0.01,0,Wunderground v.1.15,2013-02-15 05:58:00,
2013-02-14 22:04:00,45.4,40.5,30.22,North,355,0.0,5.0,83,0.00,,,0.01,0,Wunderground v.1.15,2013-02-15 06:04:00,
2013-02-14 22:10:00,45.3,40.4,30.21,North,355,0.0,5.0,83,0.00,,,0.01,0,Wunderground v.1.15,2013-02-15 06:10:00,
2013-02-14 22:16:00,45.3,40.4,30.22,West,271,1.0,5.0,83,0.00,,,0.01,0,Wunderground v.1.15,2013-02-15 06:16:00,
2013-02-14 22:22:00,45.2,40.3,30.22,West,271,1.0,5.0,83,0.00,,,0.01,0,Wunderground v.1.15,2013-02-15 06:22:00,
2013-02-14 22:28:00,45.0,40.1,30.22,South,190,0.0,5.0,83,0.00,,,0.01,0,Wunderground v.1.15,2013-02-15 06:28:00,
2013-02-14 22:34:00,44.7,39.9,30.22,South,176,1.0,5.0,83,0.00,,,0.01,0,Wunderground v.1.15,2013-02-15 06:34:00,
2013-02-14 22:39:00,44.5,40.0,30.22,South,176,0.0,5.0,84,0.00,,,0.01,0,Wunderground v.1.15,2013-02-15 06:39:00,
2013-02-14 22:45:00,44.4,39.9,30.22,South,177,1.0,5.0,84,0.00,,,0.01,0,Wunderground v.1.15,2013-02-15 06:45:00,
2013-02-14 22:52:00,44.2,39.7,30.23,East,92,1.0,5.0,84,0.00,,,0.01,0,Wunderground v.1.15,2013-02-15 06:52:00,
2013-02-14 22:58:00,44.1,39.9,30.23,SSE,157,1.0,5.0,85,0.00,,,0.01,0,Wunderground v.1.15,2013-02-15 06:58:00,
2013-02-14 23:04:00,44.0,39.8,30.23,NNW,346,1.0,5.0,85,0.00,,,0.01,0,Wunderground v.1.15,2013-02-15 07:04:00,
2013-02-14 23:09:00,43.9,39.7,30.23,WNW,290,2.0,2.0,85,0.00,,,0.01,0,Wunderground v.1.15,2013-02-15 07:09:00,
2013-02-14 23:16:00,43.8,39.9,30.23,North,350,2.0,5.0,86,0.00,,,0.01,0,Wunderground v.1.15,2013-02-15 07:16:00,
2013-02-14 23:22:00,43.7,39.8,30.23,NW,306,1.0,5.0,86,0.00,,,0.01,0,Wunderground v.1.15,2013-02-15 07:22:00,
2013-02-14 23:27:00,43.6,39.7,30.23,NW,311,1.0,5.0,86,0.00,,,0.01,0,Wunderground v.1.15,2013-02-15 07:27:00,
2013-02-14 23:33:00,43.4,39.5,30.23,NW,320,1.0,5.0,86,0.00,,,0.01,0,Wunderground v.1.15,2013-02-15 07:33:00,
2013-02-14 23:40:00,43.2,39.3,30.23,West,270,1.0,5.0,86,0.00,,,0.01,0,Wunderground v.1.15,2013-02-15 07:40:00,
2013-02-14 23:46:00,43.1,39.2,30.23,West,269,1.0,5.0,86,0.00,,,0.01,0,Wunderground v.1.15,2013-02-15 07:46:00,
2013-02-14 23:52:00,42.9,39.0,30.23,West,269,0.0,5.0,86,0.00,,,0.01,0,Wunderground v.1.15,2013-02-15 07:52:00,
2013-02-14 23:57:00,42.7,39.1,30.23,West,267,1.0,5.0,87,0.00,,,0.01,0,Wunderground v.1.15,2013-02-15 07:57:00,